TimeCST,TemperatureF,Dew PointF,Humidity,Sea Level PressureIn,VisibilityMPH,Wind Direction,Wind SpeedMPH,Gust SpeedMPH,PrecipitationIn,Events,Conditions,WindDirDegrees,DateUTC
12:15 AM,-9999,-9999,N/A,30.36,10.0,Calm,Calm,-,N/A,,Unknown,0,2013-02-02 06:15:00
12:35 AM,-9999,-9999,N/A,30.36,10.0,Calm,Calm,-,N/A,,Unknown,0,2013-02-02 06:35:00
12:55 AM,34.3,34.3,100,30.36,10.0,North,3.5,-,N/A,,Unknown,360,2013-02-02 06:55:00
1:15 AM,35.1,35.1,100,30.36,10.0,Calm,Calm,-,N/A,,Unknown,0,2013-02-02 07:15:00
1:35 AM,34.9,34.9,100,30.36,10.0,Calm,Calm,-,N/A,,Unknown,0,2013-02-02 07:35:00
2:15 AM,-9999,-9999,N/A,30.36,10.0,Calm,Calm,-,N/A,,Unknown,0,2013-02-02 08:15:00
2:35 AM,34.5,34.5,100,30.36,10.0,Calm,Calm,-,N/A,,Unknown,0,2013-02-02 08:35:00
2:55 AM,33.3,33.3,100,30.36,10.0,North,3.5,-,N/A,,Unknown,360,2013-02-02 08:55:00
3:15 AM,-9999,-9999,N/A,30.36,10.0,Calm,Calm,-,N/A,,Unknown,0,2013-02-02 09:15:00
3:35 AM,33.1,33.1,100,30.36,10.0,North,4.6,-,N/A,,Unknown,350,2013-02-02 09:35:00
3:55 AM,-9999,-9999,N/A,30.36,10.0,Calm,Calm,-,N/A,,Unknown,0,2013-02-02 09:55:00
4:15 AM,33.4,33.4,100,30.35,10.0,Calm,Calm,-,N/A,,Unknown,0,2013-02-02 10:15:00
4:35 AM,32.7,32.7,100,30.35,10.0,Calm,Calm,-,N/A,,Unknown,0,2013-02-02 10:35:00
4:55 AM,-9999,-9999,N/A,30.35,10.0,Calm,Calm,-,N/A,,Unknown,0,2013-02-02 10:55:00
5:15 AM,-9999,-9999,N/A,30.35,10.0,Calm,Calm,-,N/A,,Unknown,0,2013-02-02 11:15:00
5:35 AM,-9999,-9999,N/A,30.35,10.0,Calm,Calm,-,N/A,,Unknown,0,2013-02-02 11:35:00
5:55 AM,32.9,32.9,100,30.36,10.0,Calm,Calm,-,N/A,,Unknown,0,2013-02-02 11:55:00
6:15 AM,32.2,32.2,100,30.36,10.0,Calm,Calm,-,N/A,,Unknown,0,2013-02-02 12:15:00
6:35 AM,32.7,32.7,100,30.35,10.0,Calm,Calm,-,N/A,,Unknown,0,2013-02-02 12:35:00
6:55 AM,32.5,32.5,100,30.34,10.0,Calm,Calm,-,N/A,,Unknown,0,2013-02-02 12:55:00
7:15 AM,32.7,32.7,100,30.35,10.0,NNE,3.5,-,N/A,,Unknown,30,2013-02-02 13:15:00
7:35 AM,34.0,34.0,100,30.35,10.0,Calm,Calm,-,N/A,,Unknown,0,2013-02-02 13:35:00
7:55 AM,40.1,28.9,64,30.35,10.0,ESE,5.8,-,N/A,,Unknown,110,2013-02-02 13:55:00
8:15 AM,42.8,27.9,56,30.35,10.0,ESE,3.5,-,N/A,,Unknown,110,2013-02-02 14:15:00
8:35 AM,44.2,28.0,53,30.34,10.0,SE,5.8,-,N/A,,Unknown,140,2013-02-02 14:35:00
8:55 AM,46.6,27.1,47,30.34,10.0,SE,4.6,-,N/A,,Unknown,140,2013-02-02 14:55:00
9:15 AM,49.1,28.9,46,30.34,10.0,SSE,4.6,-,N/A,,Unknown,160,2013-02-02 15:15:00
9:35 AM,51.6,30.9,45,30.34,10.0,SSE,5.8,-,N/A,,Unknown,150,2013-02-02 15:35:00
9:55 AM,53.2,32.0,44,30.34,10.0,SSE,4.6,-,N/A,,Unknown,160,2013-02-02 15:55:00
10:15 AM,55.8,34.0,44,30.33,10.0,SSE,6.9,-,N/A,,Unknown,150,2013-02-02 16:15:00
10:35 AM,57.7,35.4,43,30.32,10.0,South,4.6,-,N/A,,Unknown,170,2013-02-02 16:35:00
10:55 AM,59.5,38.1,45,30.31,10.0,South,6.9,-,N/A,,Unknown,180,2013-02-02 16:55:00
11:15 AM,61.0,39.7,46,30.30,10.0,SSW,6.9,-,N/A,,Unknown,200,2013-02-02 17:15:00
11:55 AM,63.7,41.4,44,30.29,10.0,SSW,8.1,-,N/A,,Unknown,210,2013-02-02 17:55:00
12:15 PM,64.4,42.8,45,30.27,10.0,SSW,8.1,-,N/A,,Unknown,210,2013-02-02 18:15:00
12:35 PM,65.1,43.2,45,30.26,10.0,SSW,10.4,-,N/A,,Unknown,200,2013-02-02 18:35:00
12:55 PM,66.4,44.4,45,30.25,10.0,SSW,12.7,17.3,N/A,,Unknown,210,2013-02-02 18:55:00
1:15 PM,66.0,44.4,46,30.24,10.0,SW,10.4,-,N/A,,Unknown,220,2013-02-02 19:15:00
1:35 PM,66.6,45.1,46,30.23,10.0,SSW,10.4,18.4,N/A,,Unknown,210,2013-02-02 19:35:00
1:55 PM,66.7,45.3,46,30.23,10.0,SSW,13.8,19.6,N/A,,Unknown,210,2013-02-02 19:55:00
2:15 PM,66.2,44.6,46,30.22,10.0,SW,9.2,-,N/A,,Unknown,230,2013-02-02 20:15:00
2:35 PM,67.5,43.9,43,30.22,10.0,West,6.9,17.3,N/A,,Unknown,260,2013-02-02 20:35:00
3:15 PM,66.9,45.1,45,30.21,10.0,WSW,12.7,-,N/A,,Unknown,240,2013-02-02 21:15:00
3:35 PM,66.6,44.4,45,30.21,10.0,SW,12.7,-,N/A,,Unknown,220,2013-02-02 21:35:00
3:55 PM,66.2,45.3,47,30.20,10.0,SW,10.4,-,N/A,,Unknown,230,2013-02-02 21:55:00
4:15 PM,65.5,45.1,48,30.20,10.0,SW,8.1,-,N/A,,Unknown,220,2013-02-02 22:15:00
4:35 PM,65.3,46.0,50,30.19,10.0,SW,8.1,-,N/A,,Unknown,220,2013-02-02 22:35:00
4:55 PM,64.4,46.6,52,30.19,10.0,SW,6.9,-,N/A,,Unknown,220,2013-02-02 22:55:00
5:15 PM,63.3,46.8,55,30.19,10.0,SW,5.8,-,N/A,,Unknown,220,2013-02-02 23:15:00
5:55 PM,59.9,47.3,63,30.20,10.0,SW,4.6,-,N/A,,Unknown,220,2013-02-02 23:55:00
6:15 PM,59.4,47.1,64,30.20,10.0,SW,3.5,-,N/A,,Unknown,220,2013-02-03 00:15:00
6:35 PM,53.8,48.4,82,30.21,10.0,Calm,Calm,-,N/A,,Unknown,0,2013-02-03 00:35:00
6:55 PM,52.7,48.2,85,30.21,10.0,SW,4.6,-,N/A,,Unknown,230,2013-02-03 00:55:00
7:35 PM,50.9,46.0,83,30.22,10.0,Calm,Calm,-,N/A,,Unknown,0,2013-02-03 01:35:00
7:55 PM,54.9,48.4,79,30.22,10.0,SSW,4.6,-,N/A,,Unknown,210,2013-02-03 01:55:00
8:15 PM,55.9,48.6,76,30.22,10.0,SSW,6.9,-,N/A,,Unknown,210,2013-02-03 02:15:00
8:35 PM,55.4,48.7,78,30.22,10.0,SSW,5.8,-,N/A,,Unknown,210,2013-02-03 02:35:00
8:55 PM,55.2,48.9,79,30.22,10.0,SSW,5.8,-,N/A,,Unknown,210,2013-02-03 02:55:00
9:15 PM,54.7,48.9,81,30.22,10.0,SW,3.5,-,N/A,,Unknown,220,2013-02-03 03:15:00
9:35 PM,54.1,49.1,83,30.22,10.0,SW,3.5,-,N/A,,Unknown,220,2013-02-03 03:35:00
9:55 PM,54.7,49.5,83,30.22,10.0,SW,4.6,-,N/A,,Unknown,230,2013-02-03 03:55:00
10:15 PM,53.8,48.9,84,30.22,10.0,WSW,4.6,-,N/A,,Unknown,240,2013-02-03 04:15:00
10:35 PM,53.4,48.7,84,30.23,10.0,Calm,Calm,-,N/A,,Unknown,0,2013-02-03 04:35:00
10:55 PM,52.7,52.7,100,30.22,10.0,Calm,Calm,-,N/A,,Unknown,0,2013-02-03 04:55:00
11:15 PM,53.1,53.1,100,30.24,10.0,NNW,6.9,-,N/A,Rain,Rain,340,2013-02-03 05:15:00
11:55 PM,52.7,52.7,100,30.24,10.0,Calm,Calm,-,N/A,,Unknown,0,2013-02-03 05:55:00